Temperature
16 18 18 18 19 19 19 18 18 19 19 17 18 19 20 20 19 19 19 19 18 18 17 17 17 17 17 16 16 15 14 14 13 12 11 11 11 11 10 10 10 10 9 9
16 17 19 19 18 17 18 18 18 19 17 17 18 18 20 20 20 19 19 19 18 17 16 16 17 17 16 16 16 15 14 14 13 12 12 11 11 11 10 10 10 10 10 9
17 18 18 17 16 16 17 17 18 18 18 17 17 18 20 20 19 18 17 17 17 17 16 16 16 16 16 16 15 15 14 14 13 12 12 11 11 10 10 10 10 10 10 9
17 17 16 16 17 17 17 18 17 17 17 18 17 17 20 20 20 20 19 18 17 16 16 15 15 16 16 16 15 15 14 14 13 12 12 11 11 10 10 10 10 10 9 9
17 16 16 16 17 17 17 17 16 16 16 17 17 17 19 20 19 21 20 18 16 15 15 14 15 16 16 15 15 14 14 13 13 12 11 11 10 10 10 10 10 10 9 9
17 16 16 17 17 17 15 15 15 15 16 16 17 17 19 20 20 20 20 18 16 14 14 14 14 15 15 15 14 14 14 13 13 12 11 11 10 10 10 10 10 10 9 9
15 15 15 15 15 14 16 16 16 16 16 17 16 16 18 20 20 19 18 17 16 14 13 13 13 14 14 14 14 14 13 13 12 12 11 11 10 10 10 10 10 10 9 9
15 15 15 15 17 16 16 17 17 17 17 17 15 16 19 20 18 17 16 15 14 13 13 13 13 14 14 14 14 13 13 13 12 12 11 11 11 10 10 10 10 10 9 9
16 16 15 15 16 17 16 16 18 17 16 16 17 17 18 19 19 18 17 16 15 13 13 13 13 13 14 14 14 13 13 13 12 12 11 11 11 10 10 10 10 10 9 9
17 16 14 13 14 15 17 17 15 16 15 16 17 17 18 20 20 19 18 17 15 13 13 13 13 13 13 14 13 13 13 13 12 12 11 11 11 11 10 10 10 10 9 9
17 16 13 13 15 15 15 15 16 17 17 16 17 18 19 19 19 18 18 16 15 14 13 13 13 13 13 13 13 13 12 12 12 12 11 11 11 10 10 10 10 9 9 8
16 17 14 14 15 15 16 16 16 16 16 16 17 18 19 18 18 17 17 16 15 15 15 14 13 13 13 13 13 13 12 12 12 12 11 11 10 10 10 10 9 9 8 8
15 16 14 13 13 13 14 15 16 17 17 16 16 18 18 17 17 16 16 16 15 15 15 14 14 14 14 13 13 13 12 12 12 11 11 11 10 10 10 9 9 8 8 8
16 15 16 16 16 15 14 14 15 16 16 16 16 18 19 18 18 18 17 16 16 15 15 15 15 14 14 13 13 13 12 12 12 11 11 10 10 10 9 9 8 8 8 7
15 15 15 16 15 15 15 15 14 15 16 16 17 17 18 19 19 18 17 16 15 14 15 15 15 14 14 13 13 13 12 12 11 11 10 10 10 9 9 8 8 8 7 7
15 15 15 14 13 14 14 15 15 15 16 16 16 17 18 18 17 17 17 16 15 15 14 15 15 14 14 14 13 13 12 12 11 11 10 10 9 9 8 8 7 7 7 6
14 14 14 14 13 12 13 15 14 14 15 16 16 17 18 17 16 16 16 15 14 14 15 15 15 15 14 14 13 13 12 12 11 11 10 10 9 8 8 7 7 7 6 6
13 13 14 13 12 11 15 16 16 15 15 15 16 17 17 17 16 15 14 14 14 14 15 15 15 14 14 13 13 12 12 11 11 10 10 9 9 8 7 7 6 6 6 5
14 13 12 12 13 14 14 13 14 14 15 16 15 16 16 14 13 14 14 14 14 14 14 14 14 14 13 13 12 12 11 11 10 10 9 9 8 7 7 6 6 5 5 5
11 13 13 12 12 13 16 14 13 14 15 16 15 15 15 12 14 16 14 14 14 14 14 14 13 13 12 12 12 11 11 10 10 9 9 8 7 7 6 6 5 5 4 4
10 11 12 12 13 14 15 12 13 14 16 15 14 14 13 13 14 14 14 14 13 13 13 13 13 12 12 11 11 11 10 10 9 8 8 7 7 6 6 5 5 4 4 3
12 12 12 12 12 13 12 11 14 16 15 14 13 13 13 13 13 13 13 13 13 13 12 12 12 11 11 11 10 10 9 9 8 8 7 6 6 5 5 4 4 3 3 3
13 14 14 14 14 14 12 13 14 14 14 14 14 14 14 13 13 13 13 12 12 12 12 11 11 11 10 10 9 9 9 8 7 7 6 6 5 5 4 4 3 3 2 2
10 10 12 12 13 12 11 11 13 13 14 14 14 14 14 13 13 13 12 12 11 11 11 10 10 10 9 9 8 8 7 7 7 6 5 5 4 4 4 3 3 2 2 1
11 10 11 12 12 10 10 11 12 13 13 13 13 14 13 13 13 12 12 11 11 10 10 10 9 9 8 8 8 7 7 6 6 5 5 4 4 3 3 2 2 1 1 1
9 11 12 14 13 13 14 13 13 12 13 13 13 13 12 12 12 12 11 11 10 10 9 9 8 8 7 7 6 6 5 5 5 4 4 3 3 2 2 1 1 1 0 -0
Wind_Speed
11 13 18 18 18 14 10 11 13 12 6 7 14 19 20 18 17 18 17 16 15 15 13 10 9 10 11 12 15 17 17 18 15 12 11 10 9 8 7 7 9 10 10 9
11 21 20 14 13 13 13 15 15 11 5 6 14 21 21 18 18 16 16 16 15 14 11 11 10 10 12 13 15 16 17 17 17 14 12 9 9 7 6 6 8 9 9 9
24 12 14 14 13 15 16 17 16 13 9 8 11 15 13 12 11 13 14 14 14 13 13 12 12 11 12 13 15 14 17 17 17 15 11 8 6 5 5 7 6 7 8 8
21 12 12 16 18 18 17 14 13 12 10 9 5 11 13 12 12 11 10 9 10 11 12 12 12 12 12 12 12 14 15 16 16 16 14 15 11 10 9 8 7 7 8 8
15 16 16 18 18 17 10 5 8 9 11 13 11 10 12 9 10 8 6 6 7 8 10 12 13 12 11 11 11 12 14 15 16 16 16 16 13 10 8 8 9 8 7 7
11 9 14 15 10 12 8 6 3 4 7 12 12 11 10 7 7 8 8 7 6 6 8 11 11 11 11 11 11 12 14 14 15 15 15 15 15 12 12 11 10 8 6 6
13 9 7 7 9 10 11 9 6 7 8 9 4 8 11 10 8 11 13 12 8 5 8 11 13 13 13 13 13 13 14 14 15 15 15 14 14 14 14 12 11 9 7 6
20 16 16 12 13 12 18 16 11 7 7 5 5 9 9 9 9 10 10 9 7 5 8 11 13 13 13 14 14 14 15 14 15 14 14 13 13 10 10 11 10 10 8 7
19 15 12 13 9 13 13 15 13 9 6 8 8 7 9 9 7 5 5 4 3 3 7 10 12 13 13 14 14 15 15 14 14 14 13 13 12 11 10 10 9 8 7 7
12 13 9 9 7 7 10 11 8 9 8 9 9 10 8 7 5 3 3 4 3 2 6 10 12 13 13 13 13 14 14 15 14 14 13 10 12 11 10 10 10 9 9 8
14 11 9 11 17 19 12 13 10 10 9 8 8 7 5 7 4 3 4 4 3 2 5 8 10 12 12 12 13 13 14 14 14 14 13 13 12 11 11 10 10 10 9 9
17 11 9 11 6 10 18 18 18 12 11 9 9 8 3 6 5 5 5 4 3 2 4 7 10 11 12 13 14 14 14 14 14 14 13 13 12 12 11 11 11 10 10 9
16 12 11 7 7 7 13 18 21 17 11 12 12 9 3 5 6 6 6 5 4 3 4 7 9 11 13 14 14 15 15 15 14 14 14 13 13 13 13 12 11 10 9 9
16 13 18 19 11 14 15 19 21 20 15 17 20 18 11 10 10 9 9 7 6 4 5 7 9 11 12 13 14 15 15 15 14 14 14 14 14 13 12 11 10 10 9 9
14 16 17 13 7 13 16 20 24 26 25 20 19 21 20 17 15 14 12 10 8 8 7 8 9 10 11 13 14 14 15 14 14 15 15 14 13 12 11 11 10 9 9 9
16 13 16 13 10 11 11 17 22 25 24 26 23 22 18 17 15 15 14 12 11 10 8 8 9 10 12 13 13 14 14 14 14 15 14 13 12 12 11 11 10 10 9 9
16 12 14 13 11 8 14 20 20 18 19 19 23 23 17 14 14 14 12 11 11 10 8 8 8 10 10 11 12 13 13 13 14 14 13 13 12 12 11 10 10 10 10 9
18 16 9 8 11 12 11 9 18 21 21 21 19 17 16 16 13 11 11 11 11 9 8 7 6 7 8 9 10 10 11 12 13 13 12 12 12 12 11 11 11 10 9 9
15 15 8 8 12 11 6 7 12 16 17 19 22 20 16 7 5 9 9 9 9 8 6 4 4 5 6 7 9 10 10 11 11 12 12 12 11 11 11 11 11 9 9 9
10 12 10 8 10 12 9 9 10 10 12 13 17 18 13 8 7 7 4 4 5 4 3 2 3 5 6 7 9 10 10 10 11 11 10 10 10 10 11 10 9 8 8 8
15 12 16 12 11 10 4 8 13 11 8 6 12 14 12 12 9 2 4 3 3 3 3 4 5 5 5 7 8 9 9 9 8 8 8 8 9 9 9 8 8 7 7 8
18 15 16 14 12 11 9 13 14 7 3 5 8 9 11 10 6 4 4 4 4 4 5 5 5 5 5 6 7 7 7 6 6 7 7 7 7 7 6 7 7 7 7 8
15 15 11 13 12 3 15 12 9 4 6 6 7 8 9 8 7 6 5 5 4 5 5 5 5 5 5 5 5 6 5 5 6 6 6 6 6 6 6 7 7 7 7 7
7 5 7 8 9 7 11 8 7 7 6 6 6 7 9 8 8 8 6 6 5 5 5 5 6 6 5 4 4 4 5 5 6 5 5 5 5 5 6 5 6 6 7 7
9 10 9 10 5 5 8 12 10 8 6 5 5 6 8 9 8 8 7 6 6 5 5 5 5 5 5 5 4 4 5 5 5 4 4 4 4 5 6 6 7 8 9 9
9 11 13 11 11 10 10 11 12 10 10 9 8 6 6 7 8 7 7 6 6 6 6 5 5 5 5 5 4 4 4 4 4 4 4 3 4 5 5 6 7 9 12 13
Wind_Direction
186 204 214 214 218 235 238 246 258 268 269 266 273 279 283 283 273 267 263 255 246 241 233 215 209 203 197 194 193 190 188 189 186 185 185 186 189 184 184 185 187 190 191 193
193 220 222 219 215 221 233 248 261 273 255 263 284 284 282 277 269 265 264 258 248 241 225 209 202 195 193 190 189 187 186 186 186 187 187 188 182 180 176 170 181 186 189 189
209 216 204 198 201 216 230 242 254 268 288 263 288 284 273 272 269 267 262 258 250 236 224 207 197 192 188 188 187 185 184 184 186 183 175 162 156 157 170 175 176 179 183 183
221 206 185 202 213 218 236 236 248 261 273 279 287 294 288 285 284 275 270 259 251 236 224 207 195 190 186 184 180 182 181 183 184 180 181 180 183 185 187 179 172 169 175 175
212 200 196 208 215 212 232 214 222 243 260 274 259 269 282 281 278 291 302 288 268 240 220 205 196 188 180 174 175 177 177 180 182 185 187 188 189 184 173 167 167 168 169 173
211 197 211 219 208 200 160 136 149 217 251 261 253 245 277 262 272 300 308 309 297 246 215 202 189 179 173 169 170 172 175 178 181 185 187 189 185 175 169 172 173 173 170 172
204 201 195 181 164 170 185 202 225 231 227 247 199 235 258 267 275 285 295 302 304 251 207 193 184 180 176 173 173 174 176 177 180 184 187 189 186 182 181 180 181 178 178 181
200 207 196 190 193 184 196 205 218 241 247 244 198 239 258 280 285 284 286 290 288 241 204 195 190 185 180 178 178 179 180 180 181 184 186 186 184 184 184 184 182 185 186 185
199 204 183 191 194 186 186 211 229 252 266 267 248 250 278 275 271 284 305 306 289 235 202 196 191 190 186 183 184 184 183 181 182 184 183 184 182 182 179 178 180 182 180 174
195 193 173 170 162 200 206 184 183 213 235 247 251 248 248 245 262 312 348 343 335 232 201 197 194 193 191 189 187 187 188 185 183 183 183 182 182 181 177 175 178 179 176 174
193 179 161 175 197 191 180 189 201 209 228 241 254 244 221 238 257 291 323 337 326 249 210 202 198 195 192 189 188 189 189 187 185 185 184 182 180 178 178 180 181 179 178 181
193 191 185 192 195 224 205 203 199 207 215 227 252 256 190 228 249 262 287 308 309 253 215 205 200 195 193 193 192 192 192 191 189 186 185 184 180 178 182 183 182 181 184 189
177 189 182 184 205 196 210 213 214 223 234 226 236 248 172 220 241 248 264 282 294 264 220 204 200 200 200 199 198 197 196 195 190 186 186 184 183 185 188 186 183 185 189 193
179 195 207 212 205 187 201 206 210 214 227 234 236 248 240 242 251 258 266 276 285 268 235 216 209 207 205 203 201 200 199 196 190 188 190 191 190 190 190 187 186 189 193 198
189 207 213 225 194 181 200 205 206 215 225 237 245 248 251 253 257 265 269 274 275 266 242 226 221 215 208 205 204 202 200 195 191 191 194 196 193 190 188 188 190 192 198 204
197 207 203 207 195 194 211 214 211 219 228 238 250 257 258 261 263 264 265 265 265 263 251 235 226 219 212 207 204 200 199 194 192 195 197 193 190 188 190 192 192 194 201 207
187 186 191 207 194 199 233 221 214 218 223 229 239 248 252 251 250 253 258 260 258 261 257 240 228 220 214 208 202 200 196 189 191 196 195 191 190 192 194 193 195 200 207 212
183 188 187 177 174 218 235 208 214 222 229 227 238 248 249 251 257 261 256 255 258 257 254 244 230 219 212 203 197 192 186 186 189 194 194 192 192 195 194 197 203 208 213 218
190 182 177 184 208 233 233 201 199 210 233 229 233 242 247 245 258 257 242 238 246 252 248 240 224 208 193 187 181 176 178 182 188 195 196 194 193 194 197 203 209 213 217 225
190 194 185 187 207 226 225 186 182 192 240 227 220 230 229 194 230 245 195 206 224 228 213 193 171 166 170 170 168 170 177 183 193 196 196 193 194 197 202 208 212 216 221 231
182 194 202 201 216 236 195 149 155 193 229 193 202 211 203 201 222 180 142 158 167 158 149 144 144 148 153 157 164 172 179 191 193 188 188 190 195 202 207 210 214 218 225 236
183 190 201 205 215 224 162 158 186 208 148 168 185 191 192 199 196 178 171 163 155 144 139 140 138 132 137 153 165 172 182 179 172 175 183 191 198 200 205 212 219 225 231 242
195 194 191 201 215 192 169 190 201 174 175 181 180 183 181 184 193 189 184 173 160 151 142 141 138 130 133 153 168 171 165 158 165 174 185 192 197 203 209 217 224 231 236 245
199 187 185 203 219 202 196 207 206 199 198 191 185 176 177 184 184 182 176 169 162 155 149 145 143 141 141 149 159 159 153 160 167 179 188 194 205 215 221 224 227 233 240 248
181 177 192 212 207 197 217 216 211 202 198 186 179 180 184 180 178 177 173 169 163 153 150 151 153 149 147 149 151 148 153 162 173 185 196 208 218 228 235 238 239 242 245 247
182 185 195 211 199 195 207 208 202 194 197 192 180 174 176 180 173 166 164 161 157 153 150 150 151 149 148 151 151 153 161 171 180 196 212 223 233 241 247 255 262 247 249 258
Height
1514 1515 1512 1512 1514 1514 1516 1518 1519 1517 1518 1520 1514 1509 1503 1502 1501 1499 1497 1497 1497 1497 1499 1500 1501 1503 1505 1507 1510 1513 1517 1521 1524 1528 1531 1535 1538 1541 1543 1545 1547 1548 1549 1550
1512 1507 1505 1509 1513 1516 1517 1518 1516 1514 1517 1518 1511 1504 1497 1494 1493 1492 1491 1490 1490 1491 1493 1494 1496 1498 1500 1502 1505 1508 1512 1516 1520 1523 1528 1531 1534 1537 1540 1542 1544 1545 1546 1547
1498 1498 1504 1509 1513 1515 1515 1515 1513 1514 1513 1514 1513 1499 1489 1486 1487 1486 1485 1484 1484 1485 1486 1488 1490 1492 1495 1497 1500 1503 1507 1511 1516 1520 1524 1528 1531 1534 1536 1538 1540 1542 1543 1545
1496 1498 1503 1505 1506 1508 1510 1510 1513 1515 1516 1509 1512 1505 1486 1481 1480 1479 1479 1478 1478 1479 1481 1483 1484 1487 1491 1494 1497 1500 1504 1508 1512 1515 1519 1523 1526 1529 1532 1535 1537 1539 1540 1541
1490 1494 1498 1499 1499 1504 1505 1509 1513 1514 1513 1511 1507 1508 1486 1479 1477 1472 1473 1474 1474 1475 1476 1477 1480 1483 1487 1490 1493 1497 1500 1504 1508 1512 1515 1519 1523 1526 1529 1532 1534 1536 1537 1538
1486 1492 1493 1493 1498 1502 1508 1511 1515 1514 1512 1511 1500 1503 1486 1473 1472 1470 1470 1471 1471 1471 1471 1473 1476 1479 1483 1487 1490 1494 1497 1501 1504 1508 1512 1516 1519 1522 1525 1528 1530 1532 1533 1534
1487 1490 1491 1493 1498 1503 1504 1507 1512 1510 1508 1500 1499 1500 1482 1468 1469 1470 1469 1468 1468 1467 1468 1469 1472 1475 1479 1483 1487 1490 1494 1497 1501 1505 1509 1512 1516 1519 1522 1524 1526 1528 1529 1530
1477 1482 1484 1487 1486 1492 1496 1497 1501 1503 1497 1492 1502 1494 1473 1466 1468 1468 1468 1466 1465 1464 1465 1466 1469 1473 1476 1480 1484 1488 1491 1494 1498 1502 1505 1509 1512 1515 1518 1520 1523 1524 1526 1527
1462 1470 1476 1480 1482 1484 1491 1492 1488 1494 1497 1498 1486 1480 1472 1465 1464 1465 1464 1464 1463 1462 1462 1464 1467 1470 1474 1478 1481 1485 1488 1491 1495 1498 1502 1505 1508 1511 1514 1517 1519 1520 1522 1523
1452 1464 1474 1480 1483 1484 1482 1484 1494 1495 1496 1494 1481 1478 1470 1460 1459 1460 1461 1462 1461 1461 1461 1463 1465 1468 1472 1475 1479 1482 1485 1488 1492 1495 1498 1502 1505 1508 1510 1513 1515 1516 1518 1519
1450 1459 1475 1477 1474 1475 1482 1485 1482 1482 1481 1483 1480 1470 1458 1458 1458 1460 1460 1460 1460 1459 1460 1461 1463 1466 1469 1472 1475 1478 1482 1485 1488 1491 1495 1498 1501 1503 1506 1508 1510 1512 1513 1514
1445 1450 1463 1467 1468 1468 1468 1469 1473 1478 1479 1478 1472 1465 1454 1457 1458 1459 1459 1459 1459 1458 1458 1459 1461 1463 1465 1468 1471 1474 1477 1481 1484 1487 1490 1494 1496 1499 1502 1504 1506 1507 1509 1510
1441 1447 1459 1468 1473 1472 1468 1465 1465 1466 1467 1470 1473 1462 1454 1456 1456 1457 1457 1457 1457 1456 1456 1457 1458 1459 1461 1464 1467 1470 1473 1476 1479 1483 1486 1489 1491 1494 1497 1499 1501 1503 1504 1505
1434 1436 1439 1441 1441 1450 1459 1462 1462 1464 1465 1462 1459 1454 1451 1451 1452 1453 1454 1454 1454 1454 1454 1454 1454 1455 1457 1459 1462 1465 1468 1471 1474 1477 1481 1483 1486 1489 1492 1494 1496 1498 1499 1500
1431 1432 1433 1434 1438 1443 1446 1450 1455 1456 1451 1452 1447 1448 1446 1446 1448 1449 1450 1450 1451 1450 1450 1450 1450 1451 1453 1455 1457 1459 1462 1465 1468 1472 1475 1478 1481 1484 1487 1489 1491 1492 1493 1494
1426 1428 1432 1438 1441 1443 1444 1443 1446 1447 1446 1445 1444 1442 1440 1443 1445 1445 1445 1446 1446 1445 1445 1445 1446 1447 1447 1449 1451 1454 1457 1460 1463 1466 1469 1473 1476 1478 1481 1483 1485 1487 1488 1488
1422 1427 1431 1434 1440 1445 1442 1435 1438 1440 1439 1439 1439 1435 1435 1438 1440 1440 1440 1441 1441 1440 1440 1440 1441 1441 1443 1444 1446 1449 1451 1454 1458 1461 1464 1467 1470 1473 1475 1477 1479 1480 1481 1482
1415 1422 1426 1432 1441 1446 1422 1422 1425 1429 1429 1431 1430 1428 1430 1432 1434 1435 1435 1436 1435 1435 1436 1436 1436 1437 1438 1440 1442 1444 1447 1450 1452 1455 1458 1461 1464 1467 1469 1471 1473 1474 1475 1475
1410 1417 1424 1429 1427 1423 1421 1422 1422 1424 1422 1421 1423 1424 1426 1430 1432 1430 1429 1430 1430 1431 1431 1432 1433 1434 1435 1436 1438 1440 1443 1445 1448 1450 1453 1456 1458 1461 1463 1465 1467 1468 1469 1469
1412 1412 1418 1422 1424 1422 1408 1411 1415 1420 1419 1413 1416 1418 1421 1427 1427 1423 1424 1425 1426 1427 1427 1428 1429 1430 1431 1433 1435 1437 1439 1442 1444 1446 1449 1451 1454 1456 1458 1459 1461 1462 1462 1462
1410 1411 1411 1413 1415 1405 1404 1410 1414 1419 1409 1406 1408 1411 1416 1419 1419 1420 1420 1422 1423 1423 1424 1426 1427 1428 1429 1431 1433 1435 1437 1439 1441 1443 1445 1447 1449 1451 1453 1454 1455 1456 1456 1455
1393 1400 1403 1406 1410 1406 1403 1408 1406 1400 1401 1402 1404 1407 1410 1413 1415 1417 1418 1419 1420 1421 1422 1424 1425 1426 1428 1430 1431 1433 1434 1436 1438 1439 1441 1443 1444 1446 1447 1448 1449 1449 1449 1448
1381 1383 1386 1390 1390 1389 1393 1394 1395 1397 1399 1400 1402 1404 1407 1409 1412 1414 1415 1417 1418 1420 1421 1422 1424 1425 1427 1428 1430 1431 1432 1434 1435 1436 1437 1439 1440 1441 1442 1443 1443 1443 1442 1441
1381 1384 1384 1386 1386 1387 1389 1390 1392 1394 1396 1398 1400 1402 1404 1406 1409 1411 1413 1414 1416 1417 1419 1421 1422 1424 1425 1426 1428 1429 1430 1431 1432 1433 1434 1435 1435 1436 1436 1436 1436 1436 1435 1433
1372 1379 1379 1379 1381 1384 1385 1386 1388 1391 1393 1396 1398 1400 1402 1404 1406 1408 1410 1412 1414 1415 1417 1419 1421 1422 1423 1424 1425 1427 1428 1428 1429 1430 1430 1431 1431 1431 1430 1430 1429 1428 1427 1426
1367 1369 1370 1370 1373 1377 1378 1380 1384 1387 1389 1392 1395 1397 1399 1401 1403 1406 1407 1410 1411 1413 1415 1417 1418 1420 1421 1422 1423 1424 1425 1425 1426 1426 1426 1426 1426 1425 1424 1423 1422 1420 1419 1417